Simultaneous Nadir Overpasses (SNOs) Predictions

Prediction of SNOs between GOES-14 and NOAA-20 Satellite Orbit:

Table of predicted SNOs for the next 14.0 days since TLE Epoch: 4/18/2025
Index Date Time (GOES-14) GOES-14 Lat,Lon NOAA-20 Lat,Lon Distance(km) Time Diff (sec)
1 04/19/2025 08:24:54 0.39,-108.32 -0.35,-105.05 373.52 80
2 04/20/2025 20:44:14 -0.35,-108.34 -0.81,-110.37 231.22 80
3 04/21/2025 20:28:10 -0.37,-108.34 0.20,-105.84 285.57 80
4 04/23/2025 08:47:20 0.33,-108.33 0.98,-111.11 317.57 80
5 04/24/2025 08:31:16 0.35,-108.34 -0.03,-106.59 199.25 80
6 04/25/2025 20:50:35 -0.30,-108.35 -1.11,-111.91 405.58 80
7 04/26/2025 20:34:32 -0.32,-108.35 -0.09,-107.38 111.15 80
8 04/28/2025 08:53:41 0.27,-108.34 1.26,-112.66 492.45 80
9 04/29/2025 08:37:38 0.29,-108.34 0.24,-108.13 23.96 80
10 05/01/2025 20:38:13 -0.27,-108.35 -0.40,-108.91 65.05 80
